Skip Page Navigation
NASA JPL Caltech
NASA Logo - Jet Propulsion Laboratory + View the NASA Portal
+ Center for Near-Earth Object Studies
JPL Home Earth Solar System Stars & Galaxies Technology
JPL Solar System Dynamics
BODIES ORBITS EPHEMERIDES TOOLS PHYSICAL DATA DISCOVERY FAQ SITE MAP
IMPORTANT: The SSD Announcement email list is now available. Major changes are coming in the near future, including possible hostname and/or URL changes. To be notified of such changes, subscribe to this email list.

Please visit this page for more details.


JPL Small-Body Database Browser
Search: [ help ]  
392170 (2009 JZ17)
Classification: Main-belt Asteroid          SPK-ID: 2392170
Ephemeris | Orbit Diagram | Orbital Elements | Mission Design | Physical Parameters | Discovery Circumstances | Close-Approach Data ]

[ show orbit diagram ]
Orbital Elements at Epoch 2458600.5 (2019-Apr-27.0) TDB
Reference: JPL 9 (heliocentric ecliptic J2000)
 Element Value Uncertainty (1-sigma)   Units 
e .07432994004019478 1.1083e-07  
a 3.05742594967201 5.7317e-08 au
q 2.830167662155554 3.5719e-07 au
i 10.05769355203938 9.4899e-06 deg
node 92.1498394774646 6.977e-05 deg
peri 88.56293140967736 9.9981e-05 deg
M 356.6790765106473 6.7e-05 deg
tp 2458618.513110661582
(2019-May-15.01311066)
0.00036326 TDB
period 1952.685708948256
5.35
5.491e-05
1.503e-07
d
yr
n .1843614660312647 5.1843e-09 deg/d
Q 3.284684237188466 6.1578e-08 au
  Orbit Determination Parameters
   # obs. used (total)      66  
   data-arc span      6748 days (18.48 yr)  
   first obs. used      2000-09-05  
   last obs. used      2019-02-26  
   planetary ephem.      DE431  
   SB-pert. ephem.      SB431-N16  
   condition code      0  
   norm. resid. RMS      .66792  
   source      ORB  
   producer      Otto Matic  
   solution date      2019-Jul-14 12:32:33  

Additional Information
 Earth MOID = 1.85679 au 
 Jupiter MOID = 1.78215 au 
 T_jup = 3.207 
[ show covariance matrix ]

Ephemeris | Orbit Diagram | Orbital Elements | Mission Design | Physical Parameters | Discovery Circumstances | Close-Approach Data ]

Physical Parameter Table
Parameter Symbol Value Units Sigma Reference Notes
absolute magnitude H 16.6   n/a MPO434452  
diameter diameter 3.990 km 1.287 urn:nasa:pds:neowise_diameters_albedos::2.0[mainbelt] (http://adsabs.harvard.edu/abs/2011ApJ...741...68M)  
geometric albedo albedo 0.025   0.025 urn:nasa:pds:neowise_diameters_albedos::2.0[mainbelt] (http://adsabs.harvard.edu/abs/2011ApJ...741...68M)  

392170 (2009 JZ17)          Discovered 2009-May-01 by Spacewatch at Kitt Peak
Reference: Last Updated: 2014-04-17

[ hide close-approach data ]
Close-Approach Data   ...sorted by Date/Time (TDB)
Date/Time (TDB) Time Uncertainty
(days_HH:MM)
Body Nominal Distance (au) Minimum Distance (au) Maximum Distance (au) V-relative (km/s) V-infinity (km/s) JD (TDB) Time Uncertainty (minutes) Semi-major axis (km) Semi-minor axis (km) range-LOV angle (deg) N-sigma BP Orbit Ref. Reference Modified
1905-Jan-25 05:59 00:10 Jupiter 1.81161743288564 1.81161559692928 1.81161926885805 2.73645766428754 2.55990227972458 2416870.749264998 10.084352571518 464.447279693598 40.6036228351871 -86.3356502459783 709058.966875557 T 9 CATAB v2.0e-lin.ifort 2019-Jul-14 12:32:35 2019-Jul-14 12:32
1914-Jun-12 22:00 00:09 Jupiter 1.90234758866209 1.90234484371509 1.90235033364271 3.29808569815954 3.16020045327007 2420296.416957352 8.61594479893157 489.606431901811 53.8920406921302 -81.5211993240487 1174660.80645654 T 9 CATAB v2.0e-lin.ifort 2019-Jul-14 12:32:35 2019-Jul-14 12:32
1963-Mar-16 01:40 00:05 Jupiter 1.77509357533537 1.77509233385515 1.77509481681681 2.11002861773799 1.87026188326736 2438104.569440542 4.85162713778516 407.982793622782 33.6787699730399 83.8646201025843 1050983.7936278 T 9 CATAB v2.0e-lin.ifort 2019-Jul-14 12:32:35 2019-Jul-14 12:32
2011-Dec-28 17:21 < 00:01 Jupiter 1.81008703240525 1.81008592759643 1.81008813721417 2.9021817671572 2.73619581347122 2455924.223205160 0.569897239445526 226.519416932399 40.4879207374858 -84.5077330626003 1069368.98817617 T 9 CATAB v2.0e-lin.ifort 2019-Jul-14 12:32:35 2019-Jul-14 12:32
2021-May-13 15:24 < 00:01 Jupiter 1.89140340603017 1.89140230956048 1.89140450249966 3.13535235991965 2.98911012854765 2459348.141576359 0.97547907845517 121.491821822968 41.5959839411878 80.20612046489 1275125.36942639 T 9 CATAB v2.0e-lin.ifort 2019-Jul-14 12:32:35 2019-Jul-14 12:32
2070-Feb-20 06:40 00:06 Jupiter 1.76945188276381 1.7694507263736 1.76945303915382 2.08105455986904 1.83668288466504 2477162.777983064 5.56886621125429 520.621308066134 46.366429358747 -87.931299659757 991612.666614134 T 9 CATAB v2.0e-lin.ifort 2019-Jul-14 12:32:35 2019-Jul-14 12:32
2118-Dec-01 03:33 00:09 Jupiter 1.81429448576086 1.81429184924856 1.81429712226986 3.07033534593365 2.91431605059327 2494977.647948486 9.43201098521372 212.440131431582 59.3085966411172 -82.5511419718941 344853.506979142 T 9 CATAB v2.0e-lin.ifort 2019-Jul-14 12:32:35 2019-Jul-14 12:32
2128-Apr-16 06:28 00:11 Jupiter 1.88323057719219 1.88322722183303 1.8832339326038 2.96814637483544 2.81253460166976 2498401.769181167 10.5468512919968 591.138318283099 52.2768929755442 -83.9780742394348 1120188.29141267 T 9 CATAB v2.0e-lin.ifort 2019-Jul-14 12:32:35 2019-Jul-14 12:32
2177-Jan-29 01:22 00:16 Jupiter 1.76835393874703 1.76835251630875 1.76835536134765 2.13290322547775 1.89507194632453 2516221.556695853 15.8708496826372 1504.69189925019 49.9956391941098 -83.7592569488422 953155.875126495 T 9 CATAB v2.0e-lin.ifort 2019-Jul-14 12:32:35 2019-Jul-14 12:32
Ephemeris | Orbit Diagram | Orbital Elements | Mission Design | Physical Parameters | Discovery Circumstances | Close-Approach Data ]
ABOUT SSD CREDITS/AWARDS PRIVACY/COPYRIGHT GLOSSARY LINKS
FirstGov 2019-Dec-10 21:55 UT
(server date/time)  
NASA Home Page
Site Manager:   Ryan S. Park
Webmaster  Alan B. Chamberlin